Time,TemperatureF,DewpointF,PressureIn,WindDirection,WindDirectionDegrees,WindSpeedMPH,WindSpeedGustMPH,Humidity,HourlyPrecipIn,Conditions,Clouds,dailyrainin,SoftwareType,DateUTC
2013-05-30 00:00:00,58.7,54.5,30.11,NE,38,0.0,0.0,86,0.00,CLR,,0.00,WeatherDisplay:10.37,2013-05-30 04:00:00,
2013-05-30 00:15:00,58.4,54.2,30.11,NE,38,0.0,1.0,86,0.00,CLR,,0.00,WeatherDisplay:10.37,2013-05-30 04:15:00,
2013-05-30 00:30:00,58.2,54.3,30.11,NE,38,0.0,1.0,87,0.00,CLR,,0.00,WeatherDisplay:10.37,2013-05-30 04:30:00,
2013-05-30 00:45:00,57.9,53.7,30.11,NE,38,0.0,0.0,86,0.00,CLR,,0.00,WeatherDisplay:10.37,2013-05-30 04:45:00,
2013-05-30 01:00:00,57.5,53.7,30.10,NE,38,0.0,0.0,87,0.00,CLR,,0.00,WeatherDisplay:10.37,2013-05-30 05:00:00,
2013-05-30 01:15:00,57.2,53.4,30.10,NE,38,0.0,1.0,87,0.00,CLR,,0.00,WeatherDisplay:10.37,2013-05-30 05:15:00,
2013-05-30 01:30:00,56.9,53.1,30.10,NE,38,0.0,0.0,87,0.00,CLR,,0.00,WeatherDisplay:10.37,2013-05-30 05:30:00,
2013-05-30 01:45:00,56.6,52.8,30.09,NE,38,0.0,0.0,87,0.00,CLR,,0.00,WeatherDisplay:10.37,2013-05-30 05:45:00,
2013-05-30 02:00:00,56.3,52.5,30.08,NE,38,0.0,0.0,87,0.00,CLR,,0.00,WeatherDisplay:10.37,2013-05-30 06:00:00,
2013-05-30 02:15:00,56.1,52.3,30.09,NE,38,0.0,1.0,87,0.00,CLR,,0.00,WeatherDisplay:10.37,2013-05-30 06:15:00,
2013-05-30 02:30:00,55.9,52.1,30.08,NE,38,0.0,0.0,87,0.00,CLR,,0.00,WeatherDisplay:10.37,2013-05-30 06:30:00,
2013-05-30 02:45:00,55.7,51.9,30.09,NE,38,0.0,0.0,87,0.00,FEW,,0.00,WeatherDisplay:10.37,2013-05-30 06:45:00,
2013-05-30 03:00:00,55.5,51.7,30.09,NE,38,0.0,0.0,87,0.00,FEW,,0.00,WeatherDisplay:10.37,2013-05-30 07:00:00,
2013-05-30 03:15:00,55.2,51.4,30.09,NE,38,0.0,0.0,87,0.00,FEW,,0.00,WeatherDisplay:10.37,2013-05-30 07:15:00,
2013-05-30 03:30:00,54.9,51.4,30.10,NE,38,0.0,1.0,88,0.00,FEW,,0.00,WeatherDisplay:10.37,2013-05-30 07:30:00,
2013-05-30 03:45:00,55.0,51.5,30.11,NE,38,0.0,0.0,88,0.00,FEW,,0.00,WeatherDisplay:10.37,2013-05-30 07:45:00,
2013-05-30 04:00:00,55.2,51.7,30.11,NE,38,0.0,0.0,88,0.00,FEW,,0.00,WeatherDisplay:10.37,2013-05-30 08:00:00,
2013-05-30 04:15:00,55.4,51.9,30.11,NE,38,0.0,0.0,88,0.00,FEW,,0.00,WeatherDisplay:10.37,2013-05-30 08:15:00,
2013-05-30 04:30:00,55.3,51.8,30.11,NE,38,0.0,2.0,88,0.00,FEW,,0.00,WeatherDisplay:10.37,2013-05-30 08:30:00,
2013-05-30 04:45:00,55.4,51.9,30.12,NE,38,0.0,1.0,88,0.00,CLR,,0.00,WeatherDisplay:10.37,2013-05-30 08:45:00,
2013-05-30 05:00:00,55.5,52.0,30.12,NE,38,0.0,2.0,88,0.00,CLR,,0.00,WeatherDisplay:10.37,2013-05-30 09:00:00,
2013-05-30 05:15:00,55.7,52.2,30.13,NE,38,0.0,0.0,88,0.00,CLR,,0.00,WeatherDisplay:10.37,2013-05-30 09:15:00,
2013-05-30 05:30:00,56.2,53.0,30.13,NE,38,0.0,1.0,89,0.00,CLR,,0.00,WeatherDisplay:10.37,2013-05-30 09:30:00,
2013-05-30 05:45:00,56.6,53.4,30.14,NE,38,0.0,0.0,89,0.00,BKN,,0.00,WeatherDisplay:10.37,2013-05-30 09:45:00,
2013-05-30 06:00:00,56.9,53.7,30.14,NE,38,0.0,1.0,89,0.00,BKN,,0.00,WeatherDisplay:10.37,2013-05-30 10:00:00,
2013-05-30 06:15:00,56.9,53.7,30.15,NE,38,0.0,0.0,89,0.00,BKN,,0.00,WeatherDisplay:10.37,2013-05-30 10:15:00,
2013-05-30 06:30:00,56.8,53.6,30.15,NE,38,0.0,1.0,89,0.00,BKN,,0.00,WeatherDisplay:10.37,2013-05-30 10:30:00,
2013-05-30 06:45:00,56.9,53.7,30.15,NE,38,0.0,0.0,89,0.00,SCT,,0.00,WeatherDisplay:10.37,2013-05-30 10:45:00,
2013-05-30 07:00:00,57.2,54.0,30.16,NE,38,0.0,0.0,89,0.00,SCT,,0.00,WeatherDisplay:10.37,2013-05-30 11:00:00,
2013-05-30 07:15:00,57.5,54.3,30.16,NE,38,0.0,0.0,89,0.00,SCT,,0.00,WeatherDisplay:10.37,2013-05-30 11:15:00,
2013-05-30 07:30:00,57.9,54.7,30.16,NE,38,0.0,0.0,89,0.00,SCT,,0.00,WeatherDisplay:10.37,2013-05-30 11:30:00,
2013-05-30 07:45:00,58.3,55.1,30.17,NE,38,0.0,0.0,89,0.00,CLR,,0.00,WeatherDisplay:10.37,2013-05-30 11:45:00,
2013-05-30 08:00:00,59.0,55.8,30.17,NE,38,0.0,0.0,89,0.00,CLR,,0.00,WeatherDisplay:10.37,2013-05-30 12:00:00,
2013-05-30 08:15:00,59.3,56.1,30.17,NE,38,1.0,3.0,89,0.00,CLR,,0.00,WeatherDisplay:10.37,2013-05-30 12:15:00,
2013-05-30 08:30:00,60.0,56.8,30.17,NE,38,0.0,3.0,89,0.00,CLR,,0.00,WeatherDisplay:10.37,2013-05-30 12:30:00,
2013-05-30 08:45:00,61.1,57.9,30.17,NE,38,0.0,3.0,89,0.00,CLR,,0.00,WeatherDisplay:10.37,2013-05-30 12:45:00,
2013-05-30 09:00:00,62.8,59.2,30.18,NE,38,0.0,1.0,88,0.00,CLR,,0.00,WeatherDisplay:10.37,2013-05-30 13:00:00,
2013-05-30 09:15:00,64.9,60.6,30.17,NE,38,0.0,3.0,86,0.00,CLR,,0.00,WeatherDisplay:10.37,2013-05-30 13:15:00,
2013-05-30 09:30:00,66.6,61.7,30.17,NE,38,0.0,3.0,84,0.00,CLR,,0.00,WeatherDisplay:10.37,2013-05-30 13:30:00,
2013-05-30 09:45:00,69.0,62.6,30.17,NE,38,1.0,3.0,80,0.00,BKN,,0.00,WeatherDisplay:10.37,2013-05-30 13:45:00,
2013-05-30 10:00:00,69.9,62.4,30.17,East,80,2.0,7.0,77,0.00,BKN,,0.00,WeatherDisplay:10.37,2013-05-30 14:00:00,
2013-05-30 10:15:00,71.4,62.3,30.17,NE,47,3.0,6.0,73,0.00,BKN,,0.00,WeatherDisplay:10.37,2013-05-30 14:15:00,
2013-05-30 10:30:00,72.4,62.5,30.16,ENE,78,1.0,7.0,71,0.00,BKN,,0.00,WeatherDisplay:10.37,2013-05-30 14:30:00,
2013-05-30 10:45:00,73.6,64.0,30.15,ENE,62,3.0,7.0,72,0.00,OVC,,0.00,WeatherDisplay:10.37,2013-05-30 14:45:00,
2013-05-30 11:00:00,73.6,63.2,30.15,North,10,1.0,7.0,70,0.00,OVC,,0.00,WeatherDisplay:10.37,2013-05-30 15:00:00,
2013-05-30 11:15:00,73.8,61.7,30.15,ENE,69,1.0,9.0,66,0.00,OVC,,0.00,WeatherDisplay:10.37,2013-05-30 15:15:00,
2013-05-30 11:30:00,73.5,61.0,30.15,North,6,2.0,6.0,65,0.00,OVC,,0.00,WeatherDisplay:10.37,2013-05-30 15:30:00,
2013-05-30 11:45:00,75.0,63.3,30.14,ENE,60,3.0,12.0,67,0.00,SCT,,0.00,WeatherDisplay:10.37,2013-05-30 15:45:00,
2013-05-30 12:00:00,75.1,61.6,30.14,ENE,68,2.0,12.0,63,0.00,SCT,,0.00,WeatherDisplay:10.37,2013-05-30 16:00:00,
2013-05-30 19:15:00,73.0,59.7,30.07,NE,46,1.0,6.0,63,0.00,SCT,,0.00,WeatherDisplay:10.37,2013-05-30 23:15:00,
2013-05-30 19:30:00,72.8,59.5,30.07,NNW,342,3.0,15.0,63,0.00,SCT,,0.00,WeatherDisplay:10.37,2013-05-30 23:30:00,
2013-05-30 19:45:00,72.4,59.5,30.07,ENE,59,0.0,5.0,64,0.00,CLR,,0.00,WeatherDisplay:10.37,2013-05-30 23:45:00,
2013-05-30 20:00:00,72.0,59.6,30.08,NE,37,0.0,5.0,65,0.00,CLR,,0.00,WeatherDisplay:10.37,2013-05-31 00:00:00,
2013-05-30 20:15:00,71.5,60.8,30.08,NNE,16,0.0,2.0,69,0.00,CLR,,0.00,WeatherDisplay:10.37,2013-05-31 00:15:00,
2013-05-30 20:30:00,70.3,60.0,30.08,NNE,16,0.0,3.0,70,0.00,CLR,,0.00,WeatherDisplay:10.37,2013-05-31 00:30:00,
2013-05-30 20:45:00,69.0,60.0,30.08,North,7,0.0,4.0,73,0.00,CLR,,0.00,WeatherDisplay:10.37,2013-05-31 00:45:00,
2013-05-30 21:00:00,67.8,59.6,30.08,North,2,0.0,0.0,75,0.00,CLR,,0.00,WeatherDisplay:10.37,2013-05-31 01:00:00,
2013-05-30 21:15:00,66.6,59.2,30.08,North,3,0.0,0.0,77,0.00,CLR,,0.00,WeatherDisplay:10.37,2013-05-31 01:15:00,
2013-05-30 21:30:00,65.7,59.0,30.08,North,4,0.0,0.0,79,0.00,CLR,,0.00,WeatherDisplay:10.37,2013-05-31 01:30:00,
2013-05-30 21:45:00,64.9,58.9,30.09,North,4,0.0,0.0,81,0.00,CLR,,0.00,WeatherDisplay:10.37,2013-05-31 01:45:00,
2013-05-30 22:00:00,64.1,58.5,30.09,North,4,0.0,0.0,82,0.00,CLR,,0.00,WeatherDisplay:10.37,2013-05-31 02:00:00,
2013-05-30 22:15:00,63.5,58.3,30.10,North,3,0.0,0.0,83,0.00,CLR,,0.00,WeatherDisplay:10.37,2013-05-31 02:15:00,
2013-05-30 22:30:00,63.0,57.8,30.10,North,3,0.0,0.0,83,0.00,CLR,,0.00,WeatherDisplay:10.37,2013-05-31 02:30:00,